Weather History for K2C8 - February, 2013

Change the Weather History Date:

Friday, February 22, 2013

  Actual Average (KGAF) Record (KGAF)
Temperature  
Mean Temperature 8 °F -  
Max Temperature 15 °F 27 °F 52 °F (1958)
Min Temperature 0 °F 8 °F -26 °F (1966)
Degree Days  
Heating Degree Days 58    
Moisture  
Dew Point 4 °F    
Average Humidity 80    
Maximum Humidity 100    
Minimum Humidity 62    
Precipitation  
Precipitation 0.00 in - - ()
Sea Level Pressure  
Sea Level Pressure 30.05 in    
Wind  
Wind Speed 2 mph (NW)    
Max Wind Speed 7 mph    
Max Gust Speed -    
Visibility 8 miles    
Events Fog    
Averages and records for this station are not official NWS values.
T = Trace of Precipitation, MM = Missing Value Source: NWS Daily Summary

Daily Weather History Graph

Daily Weather History Graph

Search for Another Location

Airport or City:

Trip Planner

Search our weather history database for the weather conditions in past years. The results will help you decide how hot, cold, wet, or windy it might be!

Date:

Astronomy

Feb. 22, 2013 Rise Set
Actual Time 7:25 AM CST 6:03 PM CST
Civil Twilight 6:53 AM CST 6:35 PM CST
Nautical Twilight 6:16 AM CST 7:12 PM CST
Astronomical Twilight 5:40 AM CST 7:48 PM CST
Moon 3:06 PM CST (2/22) 5:21 AM CST (2/22)
Length of Visible Light 11h 42m
Length of Day
10h 38m
Waxing Gibbous, 90% of the Moon is Illuminated
Feb 22
Waxing Gibbous
Feb 25
Full
Mar 4
Last Quarter
Mar 11
New
Mar 19
First Quarter

Hourly Weather History & Observations

Time (CST) Temp. Windchill Dew Point Humidity Pressure Visibility Wind Dir Wind Speed Gust Speed Precip Events Conditions
12:15 AM 6.8 °F - 1.4 °F 79% 30.21 in 10.0 mi Calm Calm - N/A   Clear
12:35 AM 5.0 °F - -0.4 °F 78% 30.21 in 10.0 mi Calm Calm - N/A   Clear
12:55 AM 1.4 °F - -0.4 °F 92% 30.19 in 10.0 mi Calm Calm - N/A   Clear
1:15 AM 1.4 °F - -0.4 °F 92% 30.19 in 10.0 mi Calm Calm - N/A   Clear
1:35 AM 1.4 °F - -2.2 °F 85% 30.18 in 10.0 mi Calm Calm - N/A   Clear
1:55 AM -0.4 °F -8.3 °F -2.2 °F 92% 30.18 in 10.0 mi West 3.5 mph - N/A   Clear
2:15 AM 1.4 °F -6.2 °F -2.2 °F 85% 30.17 in 10.0 mi WNW 3.5 mph - N/A   Clear
2:35 AM -0.4 °F -10.4 °F -2.2 °F 92% 30.17 in 10.0 mi NW 4.6 mph - N/A   Clear
2:55 AM 1.4 °F - -0.4 °F 92% 30.16 in 10.0 mi Calm Calm - N/A   Clear
3:15 AM 3.2 °F - -0.4 °F 85% 30.16 in 10.0 mi Calm Calm - N/A   Clear
3:35 AM 5.0 °F -4.1 °F -0.4 °F 78% 30.15 in 10.0 mi NNW 4.6 mph - N/A   Clear
3:55 AM 3.2 °F - -0.4 °F 85% 30.15 in 10.0 mi Calm Calm - N/A   Clear
4:15 AM 5.0 °F -2.1 °F -0.4 °F 78% 30.14 in 10.0 mi North 3.5 mph - N/A   Clear
4:35 AM 3.2 °F -4.2 °F -0.4 °F 85% 30.14 in 10.0 mi NNW 3.5 mph - N/A   Clear
4:55 AM 1.4 °F - -2.2 °F 85% 30.14 in 10.0 mi Calm Calm - N/A   Clear
5:15 AM 1.4 °F -6.2 °F -0.4 °F 92% 30.13 in 10.0 mi NNW 3.5 mph - N/A   Clear
5:35 AM 1.4 °F -6.2 °F -0.4 °F 92% 30.13 in 10.0 mi NNW 3.5 mph - N/A   Clear
5:55 AM 1.4 °F -6.2 °F -0.4 °F 92% 30.13 in 10.0 mi NNW 3.5 mph - N/A   Clear
6:15 AM 3.2 °F -4.2 °F -0.4 °F 85% 30.13 in 10.0 mi NNW 3.5 mph - N/A   Clear
6:35 AM 1.4 °F -6.2 °F -2.2 °F 85% 30.12 in 10.0 mi NNW 3.5 mph - N/A   Clear
6:55 AM 1.4 °F - -0.4 °F 92% 30.12 in 10.0 mi Calm Calm - N/A   Clear
7:35 AM -0.4 °F -10.4 °F -2.2 °F 92% 30.11 in 10.0 mi NW 4.6 mph - N/A   Clear
7:55 AM 1.4 °F -6.2 °F -2.2 °F 85% 30.10 in 10.0 mi NNW 3.5 mph - N/A   Clear
8:15 AM 5.0 °F -2.1 °F -0.4 °F 78% 30.10 in 10.0 mi NNE 3.5 mph - N/A   Clear
8:35 AM 5.0 °F -2.1 °F -0.4 °F 78% 30.10 in 10.0 mi North 3.5 mph - N/A   Clear
8:55 AM 6.8 °F -2.0 °F -0.4 °F 72% 30.09 in 10.0 mi North 4.6 mph - N/A   Clear
9:15 AM 6.8 °F -3.5 °F -0.4 °F 72% 30.09 in 10.0 mi North 5.8 mph - N/A   Clear
9:35 AM 6.8 °F -3.5 °F 1.4 °F 79% 30.08 in 10.0 mi North 5.8 mph - N/A   Clear
9:55 AM 6.8 °F -2.0 °F 1.4 °F 79% 30.08 in 10.0 mi North 4.6 mph - N/A   Clear
10:15 AM 8.6 °F 2.0 °F -0.4 °F 67% 30.08 in 10.0 mi NNW 3.5 mph - N/A   Partly Cloudy
10:35 AM 8.6 °F -1.3 °F 1.4 °F 73% 30.06 in 10.0 mi NNW 5.8 mph - N/A   Clear
10:55 AM 8.6 °F 0.1 °F -0.4 °F 67% 30.07 in 10.0 mi NNW 4.6 mph - N/A   Clear
11:15 AM 10.4 °F 4.0 °F 1.4 °F 67% 30.06 in 10.0 mi NW 3.5 mph - N/A   Clear
11:35 AM 10.4 °F 0.8 °F 1.4 °F 67% 30.05 in 10.0 mi NNW 5.8 mph - N/A   Clear
11:55 AM 10.4 °F 0.8 °F 1.4 °F 67% 30.04 in 10.0 mi NNW 5.8 mph - N/A   Clear
12:15 PM 12.2 °F 4.3 °F 1.4 °F 62% 30.04 in 10.0 mi NNW 4.6 mph - N/A   Clear
12:35 PM 14.0 °F 6.5 °F 3.2 °F 62% 30.04 in 10.0 mi NW 4.6 mph - N/A   Clear
12:55 PM 14.0 °F 8.2 °F 3.2 °F 62% 30.03 in 10.0 mi NNW 3.5 mph - N/A   Clear
1:15 PM 14.0 °F 8.2 °F 5.0 °F 67% 30.02 in 10.0 mi NNW 3.5 mph - N/A   Clear
1:35 PM 14.0 °F 8.2 °F 5.0 °F 67% 30.01 in 10.0 mi NNW 3.5 mph - N/A   Clear
1:55 PM 15.8 °F 8.6 °F 6.8 °F 68% 30.01 in 10.0 mi NNW 4.6 mph - N/A   Clear
2:15 PM 15.8 °F 10.2 °F 6.8 °F 68% 30.00 in 10.0 mi NNW 3.5 mph - N/A   Clear
2:35 PM 15.8 °F 8.6 °F 6.8 °F 68% 29.99 in 10.0 mi NNW 4.6 mph - N/A   Partly Cloudy
2:55 PM 15.8 °F 8.6 °F 6.8 °F 68% 29.99 in 10.0 mi NNW 4.6 mph - N/A   Clear
3:15 PM 15.8 °F 7.2 °F 6.8 °F 68% 29.99 in 10.0 mi North 5.8 mph - N/A   Clear
3:35 PM 15.8 °F 8.6 °F 6.8 °F 68% 29.98 in 10.0 mi North 4.6 mph - N/A   Clear
3:55 PM 15.8 °F 10.2 °F 6.8 °F 68% 29.97 in 10.0 mi NNE 3.5 mph - N/A   Clear
4:15 PM 15.8 °F - 6.8 °F 68% 29.97 in 10.0 mi Calm Calm - N/A   Clear
4:35 PM 15.8 °F 10.2 °F 6.8 °F 68% 29.97 in 10.0 mi NNE 3.5 mph - N/A   Clear
4:55 PM 15.8 °F 8.6 °F 6.8 °F 68% 29.97 in 10.0 mi ENE 4.6 mph - N/A   Partly Cloudy
5:15 PM 14.0 °F 6.5 °F 5.0 °F 67% 29.97 in 10.0 mi NE 4.6 mph - N/A   Partly Cloudy
5:35 PM 14.0 °F - 6.8 °F 73% 29.97 in 10.0 mi Calm Calm - N/A   Clear
5:55 PM 14.0 °F - 5.0 °F 67% 29.96 in 10.0 mi Calm Calm - N/A   Clear
6:15 PM 12.2 °F - 5.0 °F 73% 29.96 in 10.0 mi Calm Calm - N/A   Mostly Cloudy
6:35 PM 10.4 °F - 5.0 °F 79% 29.96 in 10.0 mi Calm Calm - N/A   Mostly Cloudy
6:55 PM 10.4 °F - 5.0 °F 79% 29.96 in 10.0 mi Calm Calm - N/A   Mostly Cloudy
7:15 PM 12.2 °F 6.1 °F 6.8 °F 79% 29.95 in 10.0 mi ESE 3.5 mph - N/A   Overcast
7:35 PM 10.4 °F 4.0 °F 10.4 °F 100% 29.95 in 1.8 mi SW 3.5 mph - N/A   Overcast
7:55 PM 12.2 °F 4.3 °F 10.4 °F 92% 29.95 in 1.2 mi SW 4.6 mph - N/A   Overcast
8:15 PM 14.0 °F 8.2 °F 12.2 °F 93% 29.95 in 2.0 mi WSW 3.5 mph - N/A   Overcast
8:35 PM 14.0 °F 8.2 °F 12.2 °F 93% 29.94 in 1.2 mi SW 3.5 mph - N/A   Overcast
8:55 PM 14.0 °F 8.2 °F 14.0 °F 100% 29.94 in 0.8 mi SSW 3.5 mph - N/A   Overcast
9:15 PM 14.0 °F 8.2 °F 14.0 °F 100% 29.94 in 1.0 mi SW 3.5 mph - N/A   Overcast
9:35 PM 14.0 °F 8.2 °F 12.2 °F 93% 29.94 in 1.0 mi WSW 3.5 mph - N/A   Overcast
9:55 PM 14.0 °F - 12.2 °F 93% 29.93 in 0.2 mi Calm Calm - N/A Fog Light Freezing Fog
10:15 PM 14.0 °F - 12.2 °F 93% 29.93 in 0.2 mi Calm Calm - N/A Fog Light Freezing Fog
10:35 PM 14.0 °F 8.2 °F 12.2 °F 93% 29.93 in 0.2 mi SSW 3.5 mph - N/A Fog Light Freezing Fog
10:55 PM 14.0 °F 6.5 °F 12.2 °F 93% 29.93 in 0.2 mi SW 4.6 mph - N/A Fog Light Freezing Fog
11:15 PM 14.0 °F 8.2 °F 12.2 °F 93% 29.92 in 0.2 mi WSW 3.5 mph - N/A Fog Light Freezing Fog
11:35 PM 14.0 °F 3.9 °F 12.2 °F 93% 29.92 in 0.2 mi WSW 6.9 mph - N/A Fog Light Freezing Fog
11:55 PM 14.0 °F 3.9 °F 12.2 °F 93% 29.91 in 0.2 mi WSW 6.9 mph - N/A Fog Light Freezing Fog